Regional Weather Roundup
Issued by NWS Pendleton, OR

Home | Current Version | Previous Version | Text Only | Print | Product List | Glossary On
Versions: 1 2 3 4 5 6 7 8 9 10 11 12 13 14 15 16 17 18 19 20 21 22 23 24 25 26 27 28 29 30 31 32 33 34 35 36 37 38 39 40 41 42 43 44 45 46 47 48 49 50
000
ASUS46 KPDT 281025
RWRPDT
PENDLETON REGIONAL WEATHER ROUNDUP
NATIONAL WEATHER SERVICE PENDLETON OREGON
300 AM PDT MON JUL 28 2014

NOTE: FAIR INDICATES FEW OR NO CLOUDS BELOW 12,000 FEET WITH NO
SIGNIFICANT WEATHER AND/OR OBSTRUCTIONS TO VISIBILITY.

# INDICATES UNOFFICIAL STATION AND DATA

WAZ520-281110-
EAST SLOPES OF WASHINGTON CASCADES

CITY            SKY/WX      TMP DP  RH  WIND    PRES   REMARKS
#BUMPING DAM    N/A         57  N/A N/A NW5     N/A
#CLE ELUM HS    N/A         59  54  83  CALM    30.04F
#CLE ELUM LAKE  N/A         64  51  63  CALM    29.96S
#CLIFFDEL 2NW   N/A         60  52  75  CALM    N/A
#GLENWOOD       N/A         53  51  93  CALM    29.99S
#MANASTASH CYN  N/A         62  44  52  CALM    30.09F
#NELSON         N/A         59  54  83  CALM    30.01F
#NELSON 3SW     N/A         58  51  77  CALM    30.19S
#RONALD 2NW     N/A         62  51  67  NE1     30.00S
#TROUT LAKE 1NE N/A         60  52  75  CALM    29.99S
$$

WAZ521-281110-
SIMCOE HIGHLANDS

CITY            SKY/WX      TMP DP  RH  WIND    PRES   REMARKS
#BICKLETON HS   N/A         69  30  23  CALM    30.15S
#CENTERVILLE 1SWN/A         56  44  64  CALM    29.95R
#GOLDENDALE 1NE N/A         59  41  51  N3      N/A
#GOLDENDALE 1S  N/A         61  48  62  CALM    30.03S
#GOLDENDALE 5WNWN/A         59  45  60  CALM    29.95S
#GOODNOE HILLS  N/A         70  56  61  NW8     29.96R
#LYLE 6NE       N/A         66  60  81  E1      29.95S
$$

WAZ026-281110-
KITTITAS VALLEY

CITY            SKY/WX      TMP DP  RH  WIND    PRES   REMARKS
ELLENSBURG AP   CLEAR       61  53  75  E3      30.06S
#ELLENSBURG CWU N/A         66  56  70  NW2     29.93S
#ELLENSBURG 3NE N/A         60  54  81  CALM    30.06S
#ELLENSBURG 1E  N/A         61  53  75  CALM    N/A
#KITTITAS 3S    N/A         59  56  90  CALM    29.96S
#THORP 6N       N/A         63  55  75  N7      29.99S
$$

WAZ027-281110-
YAKIMA VALLEY

CITY            SKY/WX      TMP DP  RH  WIND    PRES   REMARKS
YAKIMA AIRPORT  PTCLDY      66  48  52  W6      30.02S
YAKIMA-VAGABOND PTCLDY      72  52  49  E9      30.05R
#COWICHE 1N     N/A         71  52  51  NW6     30.17S
#DONALD 2NE     N/A         80  42  26  SW1     30.33R
#GRANDVIEW      N/A         70  56  61  CALM    29.96S
#MABTON         N/A         68  57  68  CALM    29.98S
#MOXEE 2E       N/A         64  50  60  E3      29.94S
#NACHES 2SW     N/A         72  55  55  W9      30.06S
#OUTLOOK DOT    N/A         N/A N/A N/A W2      N/A
#SELAH 8E       N/A         68  51  55  E1      N/A
#TERRACE HTS    N/A         68  53  59  CALM    29.92R
#TOPPENISH      N/A         69  55  61  CALM    29.88S
#WAPATO 4NE     N/A         80  42  26  SW1     30.33R
#WEST VALLEY    N/A         70  51  51  CALM    29.94S
#W YAKIMA       N/A         73  55  53  N2      29.95S
#WHITE SWAN 5E  N/A         62  55  78  CALM    29.96R
#WILEY CITY 3W  N/A         71  52  51  CALM    30.02S
$$

WAZ028-281110-
LOWER COLUMBIA BASIN...WASHINGTON

CITY            SKY/WX      TMP DP  RH  WIND    PRES   REMARKS
PASCO           MOCLDY      73  56  55  E3      29.96S
PROSSER AWOS    N/A         70  59  68  E2      30.01F
RICHLAND AWOS   MOCLDY      73  54  51  W10     29.95F
#BASIN CITY 5SW N/A         70  54  57  CALM    29.97R
#BENTON CITY    N/A         74  56  53  W7      29.84F
#CONNELL 5N     N/A         75  44  33  CALM    29.93F
#CONNELL 5NW    N/A         77  46  33  CALM    29.90F
#ELTOPIA        N/A         75  48  38  CALM    29.91S
#ELTOPIA 6NW    N/A         77  48  36  NW5     28.95F
#KENNEWICK 3S   N/A         68  48  49  CALM    29.93S
#PASCO-BROADMOORN/A         76  52  43  CALM    29.83
#PATERSON       N/A         71  57  61  S2      29.94R
#PROSSER        N/A         74  51  44  E2      29.94F
#SAGEMOOR 2W    N/A         78  46  32  CALM    29.79S
#TOUCHET 2S     N/A         64  56  75  CALM    29.91F
#WEST PASCO     N/A         77  51  40  CALM    29.93F
$$

WAZ029-281110-
FOOTHILLS OF THE BLUES...WASHINGTON

CITY            SKY/WX      TMP DP  RH  WIND    PRES   REMARKS
WALLA WALLA AP  CLOUDY      77  45  32  E8      30.01F
#COLLEGE PLACE  N/A         75  48  38  E2      29.96F
#DAYTON SCHOOL  N/A         69  41  36  CALM    30.03S
#LOWDEN 2SE     N/A         69  54  59  NE1     29.91F
#PLEASANT VIEW 1N/A         79  38  23  CALM    29.96S
#PRESCOTT       N/A         72  48  43  CALM    29.92F
#SUDBURY        N/A         72  N/A N/A N9      N/A
#WHITMAN COLLEGEN/A         78  47  34  E6      29.95F
#WAITSBURG 8N   N/A         76  32  20  E2      29.88S
#WALLA WALLA 5E N/A         73  45  37  S15     N/A
#WALLA WALLA U  N/A         75  50  41  NE2     29.90F
#WHITMAN MISSIONN/A         70  53  55  CALM    29.93F
$$

WAZ030-281110-
BLUE MOUNTAINS...WASHINGTON

CITY            SKY/WX      TMP DP  RH  WIND    PRES   REMARKS
$$

ORZ009-041-WAZ024-281110-
COLUMBIA RIVER GORGE

CITY            SKY/WX      TMP DP  RH  WIND    PRES   REMARKS
HOOD RIVER AP   CLEAR       61  55  81  CALM    30.04S
THE DALLES AP   CLEAR       71  61  71  NW10    29.99S
#ARLINGTON AIRPON/A         76  56  50  W9      N/A
#ARLINGTON HS   N/A         75  54  48  CALM    29.86R
#CELILO DOT     N/A         73  56  55  S2      N/A
#MOSIER 1S      N/A         64  54  70  E2      30.09S
#MURDOCK        N/A         74  64  71  NW17    29.99S
#RUFUS DOT      N/A         73  61  66  NW2     N/A

$$

ORZ510-281110-
NORTH CENTRAL OREGON

CITY            SKY/WX      TMP DP  RH  WIND    PRES   REMARKS
#CHENOWITH 1W   N/A         66  57  73  W18     N/A
#COW CYN RST AREN/A         68  37  32  SE6     N/A
#DUFUR 9E       N/A         74  52  46  W1      29.98F
#GRASS VALLEY 1SN/A         62  42  48  CALM    29.98S
#KENT DOT       N/A         69  36  30  NW3     N/A
#MAUPIN SCHOOL  N/A         69  50  51  CALM    30.05S
#MORO SCHOOL    N/A         71  56  59  CALM    30.05S
#SHANIKO 5WSW   N/A         70  33  25  N7      N/A
#SHANIKO 4NW    N/A         70  36  29  N8      30.15F
#TYGH VALLEY 2NEN/A         63  48  58  CALM    29.98R
#WAPANITIA AIRPON/A         64  49  58  W5      29.98S
#WASCO DOT      N/A         61  49  65  E1      N/A
#WASCO 5NE      N/A         69  54  59  CALM    29.95R
$$

ORZ511-281110-
CENTRAL OREGON

CITY            SKY/WX      TMP DP  RH  WIND    PRES   REMARKS
BEND AIRPORT    PTCLDY      59  41  51  SW6     30.18R
MADRAS AIRPORT  PTCLDY      59  43  55  S6      30.11F
REDMOND AIRPORT PTCLDY      58  41  53  S8      30.14S
#BEND 6E        N/A         60  40  47  CALM    29.93R
#BEND 1SW       N/A         55  39  55  W1      N/A
#BEND-AWBREY    N/A         64  43  46  NW1     29.99R
#BEND-KIM LN    N/A         62  46  56  S3      30.15R
#CROOKED RVR RANN/A         64  47  54  N10     29.97R
#CULVER         N/A         64  47  54  CALM    30.08S
#LAKE BILLY CHINN/A         66  20  17  CALM    30.13F
#POWELL BUTTE   N/A         64  39  40  S1      29.79S
#PRINEVILLE 3N  N/A         57  48  72  CALM    29.96R


ORZ509-281110-
EAST SLOPES OF OREGON CASCADES

CITY            SKY/WX      TMP DP  RH  WIND    PRES   REMARKS
#BLUE BOX PASS  N/A         65  10  11  SE6     N/A
#BLACK BUTTE RNCN/A         55  48  77  CALM    30.00S
#CAMP SHERMAN   N/A         51  46  83  CALM    30.03R
#LA PINE DOT    N/A         48  42  80  CALM    N/A
#LA PINE 4NW    N/A         47  39  74  CALM    30.06S
#LAVA BUTTE DOT N/A         52  39  61  S15     N/A
#SISTERS AIRPOR N/A         57  53  86  CALM    30.13F
#SISTERS ODOT   N/A         56  N/A N/A CALM    N/A
#SISTERS 3N     N/A         55  45  69  CALM    N/A
#SUNRIVER       N/A         52  45  77  CALM    29.91R
#SUNRIVER AP    N/A         50  45  83  CALM    29.98R
#SUTTLE LK DOT  N/A         51  46  83  SE2     N/A
#TUMALO 3W      N/A         68  43  40  SW6     29.86S
#WANOGA BUTTE D N/A         64  39  40  W1      N/A

$$

ORZ044-281110-
LOWER COLUMBIA BASIN...OREGON

CITY            SKY/WX      TMP DP  RH  WIND    PRES   REMARKS
HERMISTON       MOCLDY      73  46  38  SW7     29.97S
#BOARDMAN SCHOOLN/A         78  61  56  CALM    29.96R
#BOARDMAN 3W    N/A         64  54  70  S2      29.68R
#BOARDMAN 8SW   N/A         70  50  49  SW6     29.96R
#IONE SCHOOL    N/A         71  42  35  E2      30.00R
#IRRIGON 4NW    N/A         68  59  73  S6      N/A
#UMATILLA SCHOOLN/A         71  58  64  S1      30.03S
#UMATILLA       N/A         75  46  36  CALM    29.94R
$$

ORZ507-281110-
NORTHERN FOOTHILLS OF THE BLUES

CITY            SKY/WX      TMP DP  RH  WIND    PRES   REMARKS
PENDLETON AIRPT CLOUDY      72  43  35  CALM    30.01S
#ADAMS 3WNW     N/A         70  43  38  CALM    29.92F
#ATHENA         N/A         67  47  49  CALM    29.96F
#HELIX SCHOOL   N/A         71  43  36  CALM    29.93F
#HELIX 3N       N/A         77  39  25  S3      29.99F
#HOLDMAN 5SE    N/A         74  42  32  CALM    30.01S
#HOLDMAN 6E     N/A         73  44  35  SW2     29.76F
#M-F FERNDALE   N/A         75  48  38  CALM    29.97F
#M-F GROVE ELEM N/A         76  44  32  CALM    29.97F
#M-FREEWATER 5SEN/A         75  51  43  E8      29.99F
#PDT AQUATIC CTRN/A         70  43  38  CALM    29.95F
#PENDLETON DNTN N/A         70  41  35  CALM    29.95S
#PENDLETON 5NE  N/A         70  48  46  CALM    29.96F
#PDT SUNRIDGE   N/A         68  48  49  CALM    30.01S
#PENDLETON 7NW  N/A         74  49  41  CALM    29.08F
#PILOT ROCK     N/A         71  39  31  CALM    30.03F
#TUTUILLA       N/A         69  50  51  CALM    29.88F
#UMAPINE 2E     N/A         74  51  44  E5      29.92F
#WESTON SCHOOL  N/A         74  40  29  W1      30.00F

$$

ORZ508-281110-
SOUTHERN FOOTHILLS OF THE BLUES

CITY            SKY/WX      TMP DP  RH  WIND    PRES   REMARKS
#AJAX           N/A         N/A N/A N/A CALM    30.09F
#CONDON SCHOOL  N/A         71  44  38  CALM    30.05F
#CONDON 5W      N/A         73  35  25  NW5     30.10F
#HEPPNER EOC    N/A         75  40  28  E1      29.92R
#HEPPNER 4NE    N/A         73  36  26  CALM    29.97R
#LEXINGTON 2SE  N/A         73  41  31  E3      30.00S
#MIKKALO        N/A         68  36  31  SE2     30.04S
#OLEX 4N        N/A         71  40  32  SW3     30.00R
#RUGGS 5NE      N/A         72  35  26  CALM    30.30R
#RUGGS 2SW      N/A         75  41  29  W5      30.01R

$$

ORZ502-503-281110-
BLUE MOUNTAINS

CITY            SKY/WX      TMP DP  RH  WIND    PRES   REMARKS
MEACHAM         MOCLDY      56  47  72  CALM    30.17F
#BATTLE MTN DOT N/A         67  44  43  S2      N/A
#HARDMAN 10S    N/A         67  39  36  CALM    30.23S
#HEPPNER 15SE   N/A         68  38  33  N3      30.12R
#LADD CYN SMT   N/A         71  33  25  W5      N/A
#LADD CREEK ODOTN/A         70  43  38  S2      N/A
#LONG CREEK HS  N/A         69  43  39  CALM    30.10F
#PIKES PEAK     N/A         80  37  21  NE7     27.99S
#TROY SCHOOL    N/A         68  50  53  S1      29.83R
#UKIAH          N/A         58  45  62  CALM    30.03F
#WESTON 4E      N/A         72  41  33  E2      29.88F
$$

ORZ505-281110-
JOHN DAY BASIN

CITY            SKY/WX      TMP DP  RH  WIND    PRES   REMARKS
JOHN DAY        CLOUDY      70  42  36  E7      30.15F
#JOHN DAY KJDY  N/A         70  46  42  CALM    30.06F
#MONUMENT HS    N/A         69  43  39  CALM    29.82R
#MT. VERNON 5SE N/A         71  39  31  CALM    30.12F
#WINLOCK        N/A         68  38  33  CALM    30.18F
$$

ORZ506-281110-
OCHOCO AND JOHN DAY HIGHLANDS

CITY            SKY/WX      TMP DP  RH  WIND    PRES   REMARKS
#BUCK CREEK DOT N/A         72  45  38  NW7     N/A
#HORSE RIDGE DO N/A         49  35  58  W1      N/A
#KEYES SMT DOT  N/A         66  38  36  SE2     N/A
#PINE MTN OBS   N/A         67  37  33  N1      N/A
#PRAIRIE CITY   N/A         60  45  58  CALM    30.09F
$$

ORZ049-281110-
GRANDE RONDE VALLEY

CITY            SKY/WX      TMP DP  RH  WIND    PRES   REMARKS
LA GRANDE       PTCLDY      70  37  30  N10     30.08F
#COVE           N/A         65  51  60  S1      30.01S
#COVE SCHOOL    N/A         65  48  54  CALM    30.07F
#COVE 6NW       N/A         66  46  48  CALM    29.99S
#ELGIN 3N       N/A         61  44  53  CALM    29.83S
#IMBLER SCHOOL  N/A         75  47  37  CALM    30.05S
#ISLAND CITY 4N N/A         64  47  54  CALM    29.90S
#LADD CYN DOT   N/A         73  42  33  SE3     N/A
#UNION 1S       N/A         70  50  49  CALM    29.86F
$$

ORZ050-281110-
WALLOWA COUNTY

CITY            SKY/WX      TMP DP  RH  WIND    PRES   REMARKS
JOSEPH AIRPORT  CLOUDY      63  43  48  S3      30.20F
#ENTERPRISE AP  N/A         66  35  32  CALM    29.99S
#ENTERPRISE HS  N/A         60  50  69  CALM    30.16S
#IMNAHA SCHOOL  N/A         76  39  26  SW1     30.03R
#IMNAHA 10S     N/A         72  42  34  SW6     30.09S
#JOSEPH 3N      N/A         56  47  72  CALM    30.18F
#JOSEPH 3W      N/A         67  38  34  SW2     30.05S
#LOSTINE        N/A         63  48  58  E5      29.77F
#MT HOWARD 8000 N/A         62  33  34  CALM    30.47S
#PROMISE 1S     N/A         65  43  45  CALM    30.03S
#SHEEP RDG 7000 N/A         65  33  30  CALM    29.91F
#WALLOWA SCHOOL N/A         59  50  72  CALM    30.85S



$$



USA.gov is the U.S. government's official web portal to all federal, state and local government web resources and services.